Home   Weather   West Covina   Past weeks
Flag for USA

Past Weather in West Covina, California, USA — Yesterday and Last 2 Weeks

Now
72 °F

Sunny.


Feels Like: 75 °F
Forecast: 89 / 61 °F
Wind: 5 mph from East

Location: Fullerton Municipal Airport

Current Time: Aug 20, 2019 at 9:44:06 am

Latest Report: Aug 20, 2019 at 8:53 am


Visibility: 9 mi

Pressure: 29.93 "Hg

Humidity: 66%

Dew Point: 60 °F

Location of West CovinaLocation

Past Weather in West Covina — Graph

°F

West Covina Temperature Yesterday

Maximum temperature yesterday: 84 °F (at 3:53 pm)
Minimum temperature yesterday: 65 °F (at 1:53 am)
Average temperature yesterday: 72 °F

High & Low Weather Summary for the Past Weeks

 TemperatureHumidityPressure
High91 °F (Aug 6, 12:53 pm)90% (Aug 14, 6:28 am)29.99 "Hg (Aug 14, 6:28 am)
Low63 °F (Aug 14, 4:44 am)28% (Aug 5, 3:53 pm)29.82 "Hg (Aug 6, 3:53 pm)
Average72 °F67%29.91 "Hg
* Reported Aug 5 7:53 am — Aug 20 7:53 am, West Covina. Weather by CustomWeather, © 2019

Note: Actual official high and low records may vary slightly from our data, if they occured in-between our weather recording intervals... More about our weather records

Advertising

West Covina Weather History for the Previous 24 Hours

Scroll right to see more
 ConditionsComfort  
Time TempWeatherWind HumidityBarometerVisibility
7:53 am
Tue, Aug 20
69 °FSunny.5 mph70%29.94 "Hg8 mi
6:53 am64 °FPassing clouds.5 mph78%29.93 "Hg10 mi
5:53 am63 °FClear.No wind84%29.93 "Hg10 mi
4:53 am64 °FClear.No wind81%29.91 "Hg10 mi
3:53 am64 °FClear.No wind81%29.90 "Hg10 mi
2:53 am65 °FClear.No wind81%29.90 "Hg10 mi
1:53 am66 °FClear.No wind78%29.90 "Hg10 mi
12:53 am67 °FClear.No wind76%29.90 "Hg10 mi
11:53 pm
Mon, Aug 19
67 °FClear.No wind76%29.90 "Hg10 mi
10:53 pm68 °FClear.No wind76%29.90 "Hg10 mi
9:53 pm69 °FClear.No wind73%29.90 "Hg10 mi
8:53 pm70 °FClear.5 mph71%29.88 "Hg10 mi
7:53 pm73 °FClear.3 mph64%29.87 "Hg10 mi
6:53 pm77 °FSunny.7 mph56%29.86 "Hg10 mi
5:53 pm82 °FSunny.7 mph48%29.86 "Hg10 mi
4:53 pm84 °FPassing clouds.8 mph46%29.87 "Hg10 mi
3:53 pm84 °FSunny.8 mph45%29.88 "Hg10 mi
2:53 pm82 °FSunny.9 mph48%29.90 "Hg10 mi
1:53 pm83 °FSunny.8 mph46%29.92 "Hg10 mi
12:53 pm81 °FSunny.3 mph47%29.93 "Hg10 mi
11:53 am77 °FSunny.5 mph54%29.95 "Hg10 mi
10:53 am74 °FPassing clouds.No wind60%29.96 "Hg8 mi
9:53 am72 °FOvercast.3 mph66%29.96 "Hg8 mi
Weather by CustomWeather, © 2019

See weather overview